Flag for Germany Weather past 2 weeks in Erkelenz, North Rhine-Westphalia, Germany

Now
64 °F

Clear.


Feels Like: 64 °F
Forecast: 61 / 75 °F
Wind: 5 mph from Southeast

Location: Monchengladbach Airport

Current Time: Sep 17, 2014 at 10:14:25 AM

Latest Report: Sep 17, 2014 at 9:50 AM


Visibility: 4 mi

Pressure: 29.92 "Hg

Humidity: 83%

Dew point: 59 °F

Location of ErkelenzLocation

Historic Weather in Erkelenz — Graph

°F

Erkelenz temperature yesterday

Maximum temperature yesterday: 75 °F (at 3:50 PM)
Minimum temperature yesterday: 57 °F (at 7:50 AM)
Average temperature yesterday: 69 °F

Past Weeks' High & Low Weather Summary

 TemperatureHumidityPressure
High77 °F (Sep 5, 4:50 PM)100% (Sep 2, 9:20 AM)30.24 "Hg (Sep 2, 9:20 AM)
Low48 °F (Sep 12, 7:50 AM)50% (Sep 16, 5:50 PM)29.89 "Hg (Sep 6, 3:20 PM)
Average65 °F74%30.07 "Hg
* Reported Sep 2 9:20 AM — Sep 17 9:20 AM, Erkelenz, Weather by CustomWeather, © 2014

Note: Actual official high and low records may vary slightly from our data, if they occured in-between our weather recording intervals... More about our weather records

Advertising

Erkelenz weather history for previous 24 hours

 ConditionsComfort  
Time TempWeatherWind HumidityBarometerVisibility
9:20 AM
Sep 17
61 °FClear.5 mph88%29.92 "Hg5 mi
8:50 AM59 °FClear.5 mph94%29.92 "Hg4 mi
8:20 AM57 °FFog.3 mph100%29.92 "Hg3 mi
7:50 AM54 °FFog.3 mph100%29.92 "Hg2 mi
8:20 PM
Sep 16
63 °FClear.2 mph88%29.92 "Hg10 mi
7:50 PM64 °FClear.2 mph88%29.92 "Hg10 mi
7:20 PM70 °FClear.3 mph69%29.92 "Hg10 mi
6:20 PM73 °FClear.6 mph61%29.92 "Hg10 mi
5:50 PM75 °FClear.5 mph50%29.92 "Hg10 mi
5:20 PM75 °FClear.8 mph54%29.92 "Hg10 mi
4:50 PM73 °FClear.9 mph57%29.92 "Hg10 mi
4:20 PM75 °FClear.8 mph57%29.95 "Hg10 mi
3:50 PM75 °FClear.6 mph54%29.95 "Hg10 mi
3:20 PM73 °FClear.7 mph61%29.95 "Hg10 mi
2:50 PM72 °FPassing clouds.7 mph65%29.95 "HgN/A
2:20 PM73 °FPassing clouds.6 mph61%29.95 "HgN/A
1:50 PM73 °FPassing clouds.6 mph61%29.95 "HgN/A
1:20 PM73 °FPassing clouds.3 mph65%29.98 "Hg5 mi
12:50 PM72 °FClear.5 mph69%29.98 "Hg5 mi
12:20 PM72 °FClear.5 mph69%29.98 "Hg5 mi
11:50 AM70 °FClear.3 mph73%29.98 "Hg5 mi
11:20 AM70 °FClear.5 mph73%29.98 "Hg5 mi
10:50 AM68 °FClear.5 mph78%30.01 "Hg5 mi
10:20 AM66 °FClear.5 mph83%30.01 "Hg4 mi
Weather by CustomWeather, © 2014

See weather overviewHow to use our weather pages